Location: Albany
(35.0000°S, 118.0000°E)
Time: 14:41:55
(UTC-04:00)

SJ-6B - Visible Passes

Search period start: 17 October 2017 00:00
Search period end: 27 October 2017 00:00
Orbit: 510 x 584 km, 97.7° (Epoch: 16 October)

Date Brightness Start Highest point End Pass type
(mag) Time Alt. Az. Time Alt. Az. Time Alt. Az.
17 Oct 3.4 08:16:21 10° S 08:20:23 58° WSW 08:22:58 20° NNW visible
18 Oct 3.1 08:11:15 10° S 08:15:19 68° WSW 08:17:55 20° NNW visible
19 Oct 2.9 08:06:09 10° S 08:10:15 80° WSW 08:12:53 20° NNW visible
20 Oct 2.7 08:01:05 10° SSE 08:05:09 88° E 08:07:50 20° NNW visible
21 Oct 2.7 07:56:01 10° SSE 08:00:04 75° ENE 08:02:46 19° N visible
22 Oct 2.7 07:50:58 10° SSE 07:54:58 63° E 07:57:43 18° N visible
23 Oct 2.9 07:45:56 10° SSE 07:49:52 53° E 07:52:39 17° N visible
24 Oct 3.1 07:40:55 10° SSE 07:44:47 45° E 07:47:36 16° NNE visible
24 Oct 6.0 09:17:43 10° SW 09:18:57 11° WSW 09:20:08 10° W visible
25 Oct 3.3 07:35:56 10° SSE 07:39:40 38° E 07:42:32 15° NNE visible
25 Oct 5.9 09:12:05 10° SW 09:13:55 13° WSW 09:15:42 10° W visible
26 Oct 3.5 07:30:57 10° SSE 07:34:33 33° E 07:37:28 13° NNE visible
26 Oct 5.8 09:06:38 10° SSW 09:08:52 15° WSW 09:11:04 10° WNW visible
